Location: Beneden-Haastrecht
(52.0012°N, 4.7557°E)
Time: 02:12:47
(UTC+00:00)

NOSS 2-1 (E) - Pass Details

Date: 24 October 2020
Orbit: 440 x 1762 km, 63.3° (Epoch: 23 November)

Event Time Altitude Azimuth Distance (km) Brightness Sun altitude
Rises 17:21:21 0° 236° (SW) 2,424 7.9 -8.9°
Reaches altitude 10° 17:23:22 10° 241° (WSW) 1,564 6.9 -9.2°
Maximum altitude 17:26:40 57° 321° (NW) 565 3.6 -9.7°
Drops below altitude 10° 17:30:29 10° 41° (NE) 1,804 5.5 -10.3°
Enters shadow 17:31:00 - 43° (NE) 2,023 5.8 -10.4°
